DW9120 Mondonedo ES current weather conditions

sailwx.info

Wind from 023

Air temperature 17.2° C
Dewpoint -39.5° C

Last reported at 2018-Jul-16 22:50 UTC.
Time now 2018-Jul-17 00:00 UTC

Location: N 43°29' W 007°20'.
View on Google Maps.

See reports from other nearby stations

  
Tides and Currents Weather Stations Pressure Air Temp Water Temp Dewpoint Dewpoint Depression Visibility Wind Speed Wind Dir Waves Ship Positions
date/time (UTC)wind fromknots sea level pressurealtimeterstation pressurevisibilityair tempwater tempwave heightnotes
2018-Jul-16 22:50 023 17.2
2018-Jul-16 22:35 023 17.2
2018-Jul-16 22:20 023 17.2
2018-Jul-16 22:05 021 17.2
2018-Jul-16 21:50 336 17.2
2018-Jul-16 21:35 049 17.2
2018-Jul-16 21:20 049 17.8
2018-Jul-16 21:04 045 18.3
2018-Jul-16 20:49 340 18.9
2018-Jul-16 20:34 038 19.4
2018-Jul-16 20:19 036 20.0
2018-Jul-16 20:04 038 0 gusting 3 20.0
2018-Jul-16 19:49 011 20.6
2018-Jul-16 19:34 017 0 gusting 5 21.1
2018-Jul-16 19:19 053 2 gusting 6 21.1
2018-Jul-16 19:04 042 21.1
2018-Jul-16 18:49 067 1 gusting 6 21.1
2018-Jul-16 18:34 038 21.7
2018-Jul-16 18:19 049 22.2
2018-Jul-16 18:04 043 22.2
2018-Jul-16 17:48 071 3 gusting 8 22.8
2018-Jul-16 17:33 022 2 gusting 6 23.9
2018-Jul-16 17:18 042 23.3
2018-Jul-16 17:03 040 1 gusting 6 23.3
2018-Jul-16 16:48 053 0 gusting 7 23.3
2018-Jul-16 16:33 063 1 gusting 7 23.9
2018-Jul-16 16:18 054 1 gusting 6 24.4
2018-Jul-16 16:03 069 1 gusting 6 24.4
2018-Jul-16 15:48 049 3 gusting 6 23.3
2018-Jul-16 15:33 028 4 gusting 7 23.3
2018-Jul-16 15:18 067 2 gusting 5 23.9
2018-Jul-16 15:03 045 23.9
2018-Jul-16 14:48 071 1 gusting 5 24.4
2018-Jul-16 14:33 355 24.4
2018-Jul-16 14:17 345 24.4
2018-Jul-16 14:02 345 24.4
2018-Jul-16 13:47 345 24.4
2018-Jul-16 13:32 205 24.4
2018-Jul-16 13:17 097 23.9
2018-Jul-16 13:02 094 23.9
2018-Jul-16 12:47 019 23.9
2018-Jul-16 12:32 309 23.9
2018-Jul-16 12:17 227 0 gusting 7 25.0
2018-Jul-16 12:02 067 24.4
2018-Jul-16 11:47 122 23.9
2018-Jul-16 11:32 217 0 gusting 3 23.9
2018-Jul-16 11:17 223 2 gusting 6 24.4
2018-Jul-16 11:02 219 5 gusting 9 25.0
2018-Jul-16 10:46 209 6 gusting 8 25.0
2018-Jul-16 10:31 209 3 gusting 7 23.9
2018-Jul-16 10:16 161 5 gusting 10 25.0
2018-Jul-16 10:01 164 5 gusting 9 24.4
2018-Jul-16 09:46 195 5 gusting 10 23.9
2018-Jul-16 09:31 212 3 gusting 9 23.3
2018-Jul-16 09:16 227 6 gusting 9 23.3
2018-Jul-16 09:01 203 6 gusting 8 22.8
2018-Jul-16 08:46 183 3 gusting 7 22.8
2018-Jul-16 08:31 200 4 gusting 7 22.2
2018-Jul-16 08:16 134 21.1
2018-Jul-16 08:01 050 20.0
2018-Jul-16 07:46 050 19.4
2018-Jul-16 07:30 050 18.3
2018-Jul-16 07:15 050 17.2
2018-Jul-16 07:00 050 16.7
2018-Jul-16 06:45 209 16.1
2018-Jul-16 06:30 209 15.0
2018-Jul-16 06:15 209 14.4
2018-Jul-16 06:00 209 13.9
2018-Jul-16 05:45 209 13.9
2018-Jul-16 05:30 240 14.4
2018-Jul-16 05:15 240 14.4
2018-Jul-16 05:00 240 15.0
2018-Jul-16 04:45 240 15.0
2018-Jul-16 04:30 240 15.0
2018-Jul-16 04:15 271 15.0
2018-Jul-16 03:59 030 15.0
2018-Jul-16 03:44 030 15.6
2018-Jul-16 03:29 030 15.6
2018-Jul-16 03:14 030 15.6
2018-Jul-16 02:59 221 15.0
2018-Jul-16 02:44 221 15.0
2018-Jul-16 02:29 221 15.0
2018-Jul-16 02:14 221 15.0
2018-Jul-16 01:59 221 15.0
2018-Jul-16 01:44 221 15.0
2018-Jul-16 01:29 221 15.0
2018-Jul-16 01:14 221 15.0
2018-Jul-16 00:59 221 15.0
2018-Jul-16 00:44 221 0 gusting 3 15.0
2018-Jul-16 00:28 185 14.4
2018-Jul-16 00:13 184 15.0
2018-Jul-15 23:58 182 15.0
2018-Jul-15 23:43 182 15.0
2018-Jul-15 23:28 180 15.6
2018-Jul-15 23:13 096 15.6
2018-Jul-15 22:58 096 16.1
2018-Jul-15 22:43 175 16.1
2018-Jul-15 22:28 175 16.7
2018-Jul-15 22:13 175 16.7
2018-Jul-15 21:58 175 17.2
2018-Jul-15 21:43 175 17.8
2018-Jul-15 21:28 175 17.8
2018-Jul-15 21:12 175 17.8
2018-Jul-15 20:57 175 18.3
2018-Jul-15 20:42 175 18.3
2018-Jul-15 20:27 026 18.9
2018-Jul-15 20:12 026 19.4
2018-Jul-15 19:57 026 20.0
2018-Jul-15 19:42 026 20.6
2018-Jul-15 19:27 026 20.6
2018-Jul-15 19:12 032 21.1
2018-Jul-15 18:57 350 21.7
2018-Jul-15 18:42 350 21.7
2018-Jul-15 18:27 215 22.2
2018-Jul-15 18:12 215 22.2
2018-Jul-15 17:57 215 22.2
2018-Jul-15 17:42 215 21.1
2018-Jul-15 17:26 215 20.0
2018-Jul-15 17:11 278 0 gusting 3 20.0
2018-Jul-15 16:56 336 20.0
2018-Jul-15 16:41 009 20.0
2018-Jul-15 16:26 009 20.0
2018-Jul-15 16:11 009 20.0
2018-Jul-15 15:56 009 20.0
2018-Jul-15 15:41 009 20.0
2018-Jul-15 15:26 040 20.0
2018-Jul-15 15:11 048 20.6
2018-Jul-15 14:56 074 0 gusting 5 21.1
2018-Jul-15 14:41 068 4 gusting 8 21.7
2018-Jul-15 14:26 058 4 gusting 9 22.2
2018-Jul-15 14:11 066 5 gusting 9 22.2
2018-Jul-15 13:55 042 6 gusting 11 22.8
2018-Jul-15 13:41 058 5 gusting 12 22.8
2018-Jul-15 13:25 042 7 gusting 13 22.8
2018-Jul-15 13:11 064 6 gusting 13 23.3
2018-Jul-15 12:55 045 6 gusting 12 22.8
2018-Jul-15 12:40 043 6 gusting 10 22.8
2018-Jul-15 12:25 053 6 gusting 9 23.3
2018-Jul-15 12:10 085 5 gusting 9 23.9
2018-Jul-15 11:56 040 1 gusting 6 23.3
2018-Jul-15 11:40 074 3 gusting 10 23.3
2018-Jul-15 11:25 046 4 gusting 9 23.3
2018-Jul-15 11:10 076 5 gusting 8 23.9
2018-Jul-15 10:55 023 5 gusting 9 23.9
2018-Jul-15 10:40 038 2 gusting 7 23.3
2018-Jul-15 10:25 073 2 gusting 7 23.9
2018-Jul-15 10:10 089 23.9
2018-Jul-15 09:55 041 23.9
2018-Jul-15 09:40 049 23.9
2018-Jul-15 09:25 090 22.8
2018-Jul-15 09:10 090 22.8
2018-Jul-15 08:55 090 22.2
2018-Jul-15 08:40 090 21.7
2018-Jul-15 08:25 090 21.1
2018-Jul-15 08:09 090 20.6
2018-Jul-15 07:54 223 20.0
2018-Jul-15 07:39 207 19.4
2018-Jul-15 07:24 207 18.9
2018-Jul-15 07:09 207 18.9
2018-Jul-15 06:54 207 18.9
2018-Jul-15 06:39 207 18.3
2018-Jul-15 06:24 207 18.9
2018-Jul-15 06:09 207 18.9
2018-Jul-15 05:54 207 18.9
2018-Jul-15 05:39 207 18.9
2018-Jul-15 05:24 207 18.3
2018-Jul-15 05:09 207 18.3
2018-Jul-15 04:53 207 18.3
2018-Jul-15 04:38 207 18.3
2018-Jul-15 04:23 207 18.3
2018-Jul-15 04:08 207 18.9
2018-Jul-15 03:53 207 18.9
2018-Jul-15 03:38 207 18.9
2018-Jul-15 03:23 207 18.9
2018-Jul-15 03:08 207 18.3
2018-Jul-15 02:53 207 18.3
2018-Jul-15 02:38 207 18.3
2018-Jul-15 02:23 207 18.3
2018-Jul-15 02:08 207 18.3
2018-Jul-15 01:53 207 18.3
2018-Jul-15 01:38 207 18.3
2018-Jul-15 01:22 207 18.3
2018-Jul-15 01:07 207 18.3
2018-Jul-15 00:52 207 18.3
2018-Jul-15 00:37 207 18.9
2018-Jul-15 00:22 207 18.9
2018-Jul-15 00:07 207 18.9